Tracking 27097 objects as of 29-Mar-2023
HD Live streaming from Space Station
objects crossing your sky now

STARLINK-2520

Track STARLINK-2520 now!
10-day predictions
STARLINK-2520 is classified as:


NORAD ID: 48281
Int'l Code: 2021-036F
Perigee: 553.7 km
Apogee: 554.8 km
Inclination: 53.1 °
Period: 95.6 minutes
Semi major axis: 6925 km
RCS: Unknown
Launch date: April 29, 2021
Source: United States (US)
Launch site: AIR FORCE EASTERN TEST RANGE (AFETR)
Your satellite tracking list
Your tracking list is empty




NASA's NSSDC Master Catalog

Two Line Element Set (TLE):
1 48281U 21036F   23088.10013354  .00010633  00000-0  73105-3 0  9995
2 48281  53.0523 229.6178 0000816  72.2915 287.8163 15.06429596106693
Source of the keplerian elements: AFSPC